Weather History for KBYI - April, 2014

Change the Weather History Date:

Saturday, April 12, 2014

  Actual Average Record
Temperature  
Mean Temperature 52 °F 45 °F  
Max Temperature 63 °F 57 °F 84 °F (1988)
Min Temperature 40 °F 33 °F 19 °F (1954)
Degree Days  
Heating Degree Days 13 20  
Month to date heating degree days 214 251  
Since 1 July heating degree days 5604 6070  
Cooling Degree Days 0 0  
Month to date cooling degree days 0 0  
Year to date cooling degree days 0 0  
Growing Degree Days 2 (Base 50)    
Moisture  
Dew Point 27 °F    
Average Humidity 42    
Maximum Humidity 62    
Minimum Humidity 21    
Precipitation  
Precipitation 0.00 in 0.04 in 0.12 in (2010)
Month to date precipitation 0.19 0.37  
Year to date precipitation 3.51 3.08  
Sea Level Pressure  
Sea Level Pressure 29.71 in    
Wind  
Wind Speed 15 mph (WSW)    
Max Wind Speed 24 mph    
Max Gust Speed 37 mph    
Visibility 10 miles    
Events      
T = Trace of Precipitation, MM = Missing Value Source: NWS Daily Summary

Daily Weather History Graph

Daily Weather History Graph

Search for Another Location

Airport or City:

Trip Planner

Search our weather history database for the weather conditions in past years. The results will help you decide how hot, cold, wet, or windy it might be!

Date:

Astronomy

Apr. 12, 2014 Rise Set
Actual Time 6:58 AM MDT 8:13 PM MDT
Civil Twilight 6:29 AM MDT 8:42 PM MDT
Nautical Twilight 5:54 AM MDT 9:17 PM MDT
Astronomical Twilight 5:18 AM MDT 9:54 PM MDT
Moon 5:53 PM MDT (4/12) 5:30 AM MDT (4/12)
Length of Visible Light 14h 13m
Length of Day
13h 15m
Waxing Gibbous, 93% of the Moon is Illuminated
Apr 12
Waxing Gibbous
Apr 15
Full
Apr 22
Last Quarter
Apr 29
New
May 6
First Quarter

Hourly Weather History & Observations

Time (MDT) Temp. Windchill Dew Point Humidity Pressure Visibility Wind Dir Wind Speed Gust Speed Precip Events Conditions
12:53 AM 54.0 °F - 30.0 °F 40% 29.75 in 10.0 mi SW 11.5 mph - N/A   Clear
1:53 AM 54.0 °F - 28.0 °F 37% 29.73 in 10.0 mi SW 13.8 mph - N/A   Clear
2:53 AM 53.1 °F - 28.9 °F 40% 29.72 in 10.0 mi WSW 12.7 mph - N/A   Clear
3:53 AM 50.0 °F - 30.0 °F 46% 29.73 in 10.0 mi SW 10.4 mph - N/A   Clear
4:53 AM 50.0 °F - 28.9 °F 44% 29.72 in 10.0 mi SW 10.4 mph - N/A   Clear
5:53 AM 46.9 °F - 30.9 °F 54% 29.72 in 10.0 mi WSW 8.1 mph - N/A   Clear
6:53 AM 42.1 °F 37.1 °F 30.9 °F 65% 29.74 in 10.0 mi SW 8.1 mph - N/A   Clear
7:53 AM 48.0 °F - 32.0 °F 54% 29.74 in 10.0 mi WSW 10.4 mph - N/A   Clear
8:53 AM 50.0 °F - 30.9 °F 48% 29.76 in 10.0 mi West 16.1 mph 21.9 mph N/A   Clear
9:53 AM 52.0 °F - 32.0 °F 47% 29.75 in 10.0 mi West 15.0 mph - N/A   Clear
10:53 AM 55.0 °F - 34.0 °F 45% 29.75 in 10.0 mi WSW 13.8 mph 20.7 mph N/A   Clear
11:53 AM 57.0 °F - 32.0 °F 39% 29.75 in 10.0 mi West 17.3 mph - N/A   Clear
12:53 PM 57.9 °F - 30.0 °F 35% 29.73 in 10.0 mi West 18.4 mph 23.0 mph N/A   Clear
1:53 PM 61.0 °F - 30.9 °F 32% 29.70 in 10.0 mi West 12.7 mph 26.5 mph N/A   Clear
2:53 PM 62.1 °F - 24.1 °F 23% 29.68 in 10.0 mi West 17.3 mph 27.6 mph N/A   Clear
3:53 PM 63.0 °F - 25.0 °F 24% 29.66 in 10.0 mi West 19.6 mph 28.8 mph N/A   Clear
4:53 PM 62.1 °F - 26.1 °F 25% 29.65 in 10.0 mi West 18.4 mph 32.2 mph N/A   Clear
5:53 PM 60.1 °F - 21.9 °F 23% 29.65 in 10.0 mi West 17.3 mph 28.8 mph N/A   Clear
6:53 PM 57.0 °F - 17.1 °F 21% 29.67 in 10.0 mi West 19.6 mph 28.8 mph N/A   Clear
7:53 PM 54.0 °F - 19.9 °F 26% 29.66 in 10.0 mi West 16.1 mph 23.0 mph N/A   Clear
8:53 PM 48.9 °F - 19.9 °F 32% 29.68 in 10.0 mi WSW 17.3 mph - N/A   Clear
9:53 PM 46.0 °F 39.6 °F 18.0 °F 33% 29.70 in 10.0 mi SW 15.0 mph - N/A   Clear
10:53 PM 45.0 °F 38.2 °F 19.0 °F 36% 29.70 in 10.0 mi SW 15.0 mph - N/A   Clear
11:53 PM 44.1 °F 37.1 °F 21.0 °F 40% 29.69 in 10.0 mi WSW 15.0 mph - N/A   Clear